Terug naar catalogus

STARLINK-35072

ActiefCommunicatieVLEO
NORAD 65505·PAYLOAD·🇺🇸 United States

Gelanceerd Sep 5, 2025 vanaf Cape Canaveral Space Force Station

Loading…

Volgende Passages (komende 24 uur)

TLE

VersSource: CelesTrak SupGP

Epoch: Sep 14, 2026, 21:20 UTC

1 65505C 25198P   26257.88937500 -.00046631  00000+0 -13779-2 0  2575
2 65505  53.1579 107.8274 0001312  86.2045 100.3348 15.34409688    12

Volg STARLINK-35072 in realtime met AllMySat

Download on the App Store